[[{"header":{"parameterUnit":"m.s-1","parameterCategory":1,"la1":30.2991,"la2":30.254,"lo1":-89.0895,"lo2":-89.0444,"dy":0.0017,"dx":0.0017,"nx":28,"ny":28,"refTime":"2025-02-10T09:00:00:Z","depth":0,"parameterNumber":2,"parameterNumberName":"U-component_of_WINDS"},"data":[0,0,0,0,0,0,0,0,0,0,0,0,0,0,0,0,0,0,0,0,0,0,0,0,0,0,0,0,0,0,0,0,0,0,0,0,0,0,0,0,0,0,0,0,0,0,0,0,0,0,0,0,0,0,0,0,0,0,-3.7749,-3.775,0,-3.7848,-3.785,-3.7851,-3.777,-3.7767,-3.7764,-3.776,-3.7866,-3.7872,-3.7878,0,0,0,0,0,0,0,0,0,0,0,0,0,-3.7493,-3.7498,-3.7749,-3.775,-3.7751,-3.7848,-3.785,-3.7851,-3.7771,-3.7767,-3.7763,-3.7759,-3.7864,-3.7871,-3.7879,0,0,0,0,0,0,0,0,0,0,0,0,0,-3.76,-3.75,-3.7748,-3.7723,-3.7721,-3.7848,-3.785,-3.7851,-3.7772,-3.7767,-3.7762,-3.7757,-3.7862,-3.7871,-3.788,-3.8038,0,0,-3.7907,-3.7911,0,0,0,0,0,0,0,0,-3.7594,-3.7609,-3.7725,-3.7725,-3.7724,-3.7792,-3.7798,-3.7914,-3.7773,-3.7753,-3.776,-3.7754,-3.7846,-3.7856,-3.7886,-3.8043,-3.8047,-3.7908,-3.7913,-3.7917,-3.792,0,0,0,0,0,0,0,-3.7586,-3.7604,-3.7788,-3.7727,-3.7726,-3.7708,-3.7717,-3.782,-3.7827,-3.7754,-3.7749,-3.7761,-3.7844,-3.7878,-3.7888,-3.8049,-3.7908,-3.7916,-3.7921,-3.7925,-3.8343,-3.8348,0,0,0,0,0,0,-3.7581,-3.7599,-3.7785,-3.7791,-3.7645,-3.7716,-3.7727,-3.7775,-3.7826,-3.7828,-3.7766,-3.7757,-3.7865,-3.7877,-3.7891,-3.8081,-3.7917,-3.7926,-3.7931,-3.8337,-3.8344,-3.835,0,0,0,0,0,0,-3.7576,-3.7598,-3.7781,-3.7694,-3.7715,-3.7726,-3.7781,-3.778,-3.7813,-3.7834,-3.7835,-3.7798,-3.7861,-3.7879,-3.8002,-3.8084,-3.793,-3.7938,-3.833,-3.8339,-3.8347,-3.8462,0,0,0,0,0,0,-3.7569,-3.7597,-3.7656,-3.7695,-3.772,-3.7889,-3.7786,-3.7785,-3.7828,-3.7818,-3.7865,-3.7868,-3.7858,-3.7989,-3.8011,-3.8094,-3.7945,-3.8323,-3.8334,-3.8344,-3.8451,-3.8474,-3.8493,0,0,0,0,0,-3.756,-3.7685,-3.766,-3.7683,-3.7794,-3.7894,-3.7909,-3.7894,-3.7835,-3.7895,-3.7909,-3.7866,-3.8071,-3.8002,-3.8027,-3.8113,-3.8318,-3.8331,-3.8343,-3.8442,-3.8469,-3.8492,0,0,0,0,0,0,-3.7656,-3.769,-3.7662,-3.7803,-3.7846,-3.788,-3.7956,-3.7923,-3.7985,-3.7974,-3.7954,-3.7966,-3.8096,-3.8116,-3.8039,-3.827,-3.8185,-3.8203,-3.8252,-3.8278,-3.8298,-3.8292,-3.7952,0,0,0,0,0,-3.7694,-3.7771,-3.7796,-3.7919,-3.7942,-3.7945,-3.7988,-3.7973,-3.8018,-3.8036,-3.8059,-3.8105,-3.818,-3.823,-3.8299,-3.8453,-3.8463,-3.8524,-3.8545,-3.8562,-3.8579,-3.8664,-3.8692,-3.8392,-3.8392,-3.8392,0,0,-3.7773,-3.78,-3.785,-3.7939,-3.797,-3.8052,-3.7961,-3.8051,-3.8112,-3.805,-3.8168,-3.8187,-3.8237,-3.8377,-3.844,-3.8398,-3.8664,-3.8579,-3.8592,-3.86,-3.868,-3.8708,-3.8734,-3.8401,-3.8399,-3.8398,0,0,-3.7958,-3.7986,-3.8092,-3.8125,-3.8174,-3.8176,-3.8202,-3.8241,-3.8251,-3.8369,-3.8324,-3.8397,-3.8525,-3.8564,-3.86,-3.8801,-3.8764,-3.8824,-3.8934,-3.9017,-3.904,-3.9061,-3.9135,-3.9162,-3.884,-3.884,-3.8841,0,-3.8051,-3.8171,-3.8151,-3.8245,-3.8286,-3.8232,-3.834,-3.8374,-3.8444,-3.8474,-3.8426,-3.8587,-3.8617,-3.8766,-3.8815,-3.8845,-3.8875,-3.882,-3.9038,-3.9059,-3.9078,-3.9149,-3.9176,-3.8848,-3.8847,-3.8846,-3.8845,0,-3.8283,-3.8367,-3.8447,-3.8515,-3.8564,-3.8665,-3.8662,-3.8715,-3.8696,-3.8703,-3.8825,-3.8859,-3.8936,-3.8969,-3.8952,-3.9117,-3.909,-3.904,-3.8956,-3.9114,-3.918,-3.9207,-3.8858,-3.8855,-3.8853,-3.8851,0,0,-3.8533,-3.8589,-3.8619,-3.8649,-3.8699,-3.8765,-3.8864,-3.8937,-3.8984,-3.9034,-3.9118,-3.9228,-3.9183,-3.9225,-3.9211,-3.9284,-3.9443,-3.9225,-3.9226,-3.9267,-3.963,-3.9668,-3.97,-3.9418,-3.9423,-3.9427,-3.9626,0,-3.8723,-3.8893,-3.8879,-3.9041,-3.912,-3.907,-3.9156,-3.9197,-3.9207,-3.9276,-3.9287,-3.9366,-3.9299,-3.9324,-3.9394,-3.9409,-3.9516,-3.9394,-3.9499,-3.9503,-3.949,-3.9734,-3.9774,-3.996,-3.9652,-3.9656,-3.9659,0,-3.8967,-3.9025,-3.9195,-3.9234,-3.9267,-3.9344,-3.9412,-3.9478,-3.9524,-3.9526,-3.9572,-3.9547,-3.9648,-3.9559,-3.97,-3.9617,-3.9659,-3.9673,-3.968,-3.9691,-3.9592,-3.9754,-4.0019,-4.0048,-3.9699,-3.9696,-3.9693,0,-3.9135,-3.9255,-3.9373,-3.9401,-3.9449,-3.9505,-3.9528,-3.9569,-3.9615,-3.9674,-3.9704,-3.9774,-3.9814,-3.987,-3.9865,-3.98,-4.0009,-3.9919,-4.0015,-4.0016,-4.0063,-4.0061,-4.0342,-4.0086,-4.0086,-4.0085,-4.0085,0,-3.935,-3.9456,-3.945,-3.9523,-3.9641,-3.9623,-3.9742,-3.9758,-3.9795,-3.9872,-3.9833,-3.9906,-3.9893,-3.9967,-3.9963,-4.0081,-4.0099,-4.0105,-4.0103,-4.011,-4.011,-4.0139,-4.0127,-4.0093,-4.0091,-4.009,-4.0089,0,-3.9558,-3.9558,-3.9683,-3.9719,-3.973,-3.9816,-3.9847,-3.9917,-3.9923,-4.002,-4.0042,-4.0053,-4.0137,-4.0137,-4.0233,-4.0231,-4.0377,-4.0359,-4.0361,-4.0359,-4.0456,-4.0448,-4.0767,-4.0809,-4.0525,-4.0528,-4.053,0,-3.9696,-3.9777,-3.9821,-3.9869,-3.9895,-3.9973,-4.0019,-4.0005,-4.0056,-4.0115,-4.0178,-4.0258,-4.0322,-4.046,-4.0477,-4.0552,-4.0537,-4.0644,-4.0548,-4.0553,-4.0542,-4.0538,-4.0547,-4.0663,-4.0667,-4.0669,-4.0671,0,-3.9942,-3.9938,-4.0006,-4.0074,-4.0131,-4.0184,-4.0233,-4.0275,-4.0267,-4.0326,-4.0411,-4.0461,-4.0559,-4.0641,-4.0712,-4.0737,-4.0705,-4.0701,-4.0728,-4.0736,-4.0735,-4.074,-4.0415,-4.0694,-4.0692,-4.069,-4.0689,-4.0688,-4.0121,-4.0191,-4.0234,-4.0311,-4.0346,-4.0393,-4.0461,-4.0475,-4.0546,-4.0624,-4.0612,-4.0708,-4.0754,-4.0846,-4.0878,-4.0954,-4.0917,-4.0955,-4.0965,-4.0975,-4.0987,-4.0721,-4.0967,-4.0966,-4.0966,-4.0965,-4.0965,0,-4.0367,-4.0391,-4.0463,-4.0533,-4.0594,-4.0555,-4.0608,-4.0663,-4.0747,-4.0792,-4.0855,-4.0955,-4.1034,-4.1057,-4.1134,-4.119,-4.1178,-4.1211,-4.1208,-4.1215,-4.1015,-4.0985,-4.1221,-4.1221,-4.1221,-4.1221,-4.1221,-4.122,-4.0502,-4.0619,-4.0621,-4.0756,-4.078,-4.0873,-4.0907,-4.0951,-4.0986,-4.1098,-4.1164,-4.1177,-4.1214,-4.1294,-4.1365,-4.137,-4.1401,-4.1442,-4.1442,-4.1255,-4.1229,-4.1205,-4.1177,-4.1449,-4.1449,-4.1636,-4.1637,-4.1639]},{"header":{"parameterUnit":"m.s-1","parameterCategory":1,"la1":30.2991,"la2":30.254,"lo1":-89.0895,"lo2":-89.0444,"dy":0.0017,"dx":0.0017,"nx":28,"ny":28,"refTime":"2025-02-10T09:00:00:Z","depth":0,"parameterNumber":3,"parameterNumberName":"V-component_of_WINDS"},"data":[0,0,0,0,0,0,0,0,0,0,0,0,0,0,0,0,0,0,0,0,0,0,0,0,0,0,0,0,0,0,0,0,0,0,0,0,0,0,0,0,0,0,0,0,0,0,0,0,0,0,0,0,0,0,0,0,0,0,-1.9191,-1.919,0,-1.9171,-1.9171,-1.9171,-1.9135,-1.9135,-1.9134,-1.9133,-1.9114,-1.9114,-1.9114,0,0,0,0,0,0,0,0,0,0,0,0,0,-1.9196,-1.9196,-1.9191,-1.919,-1.919,-1.9171,-1.9171,-1.9171,-1.9135,-1.9135,-1.9134,-1.9133,-1.9114,-1.9114,-1.9114,0,0,0,0,0,0,0,0,0,0,0,0,0,-1.9187,-1.9196,-1.9191,-1.917,-1.9168,-1.9171,-1.9171,-1.9171,-1.9136,-1.9135,-1.9133,-1.9133,-1.9114,-1.9114,-1.9114,-1.9136,0,0,-1.9115,-1.9115,0,0,0,0,0,0,0,0,-1.9188,-1.9187,-1.9173,-1.9172,-1.9169,-1.9155,-1.9166,-1.9159,-1.9136,-1.9148,-1.9133,-1.9132,-1.9128,-1.9127,-1.9126,-1.9135,-1.9134,-1.9115,-1.9115,-1.9115,-1.9115,0,0,0,0,0,0,0,-1.9188,-1.9187,-1.9183,-1.9173,-1.9171,-1.9162,-1.9159,-1.9164,-1.9144,-1.9147,-1.9144,-1.9142,-1.9127,-1.9126,-1.9125,-1.9134,-1.9115,-1.9115,-1.9115,-1.9115,-1.9158,-1.9159,0,0,0,0,0,0,-1.9192,-1.9188,-1.9184,-1.9182,-1.9176,-1.9162,-1.916,-1.916,-1.9144,-1.914,-1.9143,-1.9141,-1.9126,-1.9125,-1.9124,-1.9148,-1.9115,-1.9115,-1.9115,-1.9157,-1.9158,-1.9159,0,0,0,0,0,0,-1.9192,-1.9192,-1.9184,-1.9185,-1.9183,-1.9163,-1.9164,-1.9161,-1.9159,-1.9141,-1.9137,-1.9146,-1.9125,-1.9124,-1.9133,-1.9147,-1.9115,-1.9115,-1.9156,-1.9157,-1.9159,-1.9195,0,0,0,0,0,0,-1.9192,-1.9192,-1.9201,-1.9185,-1.9183,-1.9194,-1.9165,-1.9161,-1.916,-1.9156,-1.9143,-1.9139,-1.9124,-1.9133,-1.9133,-1.9146,-1.9115,-1.9155,-1.9157,-1.9158,-1.9193,-1.9198,-1.9202,0,0,0,0,0,-1.9193,-1.9212,-1.9201,-1.9201,-1.9193,-1.9195,-1.9193,-1.9175,-1.9161,-1.9169,-1.9157,-1.914,-1.9145,-1.9134,-1.9134,-1.9148,-1.9154,-1.9156,-1.9158,-1.9191,-1.9197,-1.9202,0,0,0,0,0,0,-1.923,-1.921,-1.9197,-1.9212,-1.9205,-1.9189,-1.9198,-1.9183,-1.918,-1.9177,-1.9155,-1.9152,-1.9163,-1.9156,-1.9144,-1.9167,-1.9146,-1.9149,-1.9171,-1.9177,-1.9182,-1.9183,-1.9116,0,0,0,0,0,-1.924,-1.9243,-1.9225,-1.924,-1.9237,-1.9218,-1.9218,-1.9205,-1.9197,-1.9194,-1.9182,-1.9175,-1.9175,-1.9176,-1.9175,-1.9191,-1.9188,-1.9201,-1.9205,-1.9209,-1.9212,-1.9219,-1.9224,-1.9167,-1.9167,-1.9167,0,0,-1.9261,-1.925,-1.9253,-1.9247,-1.924,-1.9243,-1.9216,-1.9221,-1.9223,-1.9194,-1.9202,-1.9193,-1.9184,-1.9196,-1.9201,-1.9191,-1.9227,-1.9212,-1.9216,-1.9216,-1.9222,-1.9228,-1.9232,-1.9169,-1.9168,-1.9168,0,0,-1.93,-1.9293,-1.9304,-1.9297,-1.9286,-1.9273,-1.9276,-1.9261,-1.9254,-1.9261,-1.9239,-1.9241,-1.9242,-1.9235,-1.9232,-1.9267,-1.9251,-1.9268,-1.9293,-1.93,-1.9305,-1.9308,-1.932,-1.9325,-1.927,-1.927,-1.927,0,-1.9328,-1.9332,-1.9311,-1.9317,-1.9314,-1.9288,-1.9298,-1.9293,-1.9283,-1.9281,-1.9269,-1.9268,-1.926,-1.9271,-1.9279,-1.9277,-1.9279,-1.9269,-1.9306,-1.9309,-1.9313,-1.9324,-1.9328,-1.9272,-1.9272,-1.9272,-1.9272,0,-1.9365,-1.9368,-1.9378,-1.9368,-1.9367,-1.9375,-1.9355,-1.9356,-1.9342,-1.933,-1.9337,-1.9326,-1.9322,-1.9323,-1.931,-1.9331,-1.9325,-1.931,-1.9289,-1.932,-1.933,-1.9335,-1.9275,-1.9274,-1.9274,-1.9273,0,0,-1.9429,-1.9406,-1.941,-1.9405,-1.9391,-1.9392,-1.9399,-1.9394,-1.9395,-1.9388,-1.9393,-1.9393,-1.9378,-1.9375,-1.936,-1.9367,-1.9394,-1.935,-1.935,-1.9359,-1.9416,-1.9427,-1.9433,-1.9383,-1.9384,-1.9384,-1.9417,0,-1.9465,-1.9475,-1.9456,-1.947,-1.9472,-1.9446,-1.9451,-1.9443,-1.9432,-1.9431,-1.9419,-1.9419,-1.94,-1.9397,-1.9403,-1.939,-1.9405,-1.9387,-1.9387,-1.9387,-1.939,-1.9438,-1.9451,-1.9482,-1.942,-1.9421,-1.9422,0,-1.9509,-1.9504,-1.9518,-1.9501,-1.9501,-1.9507,-1.95,-1.95,-1.949,-1.9481,-1.9476,-1.9459,-1.9463,-1.9443,-1.9448,-1.9437,-1.9435,-1.9429,-1.9429,-1.9429,-1.9406,-1.9439,-1.9491,-1.9496,-1.9428,-1.9427,-1.9427,0,-1.9553,-1.955,-1.9558,-1.9554,-1.9535,-1.9539,-1.9531,-1.9519,-1.9517,-1.9511,-1.951,-1.9505,-1.9502,-1.9498,-1.948,-1.9467,-1.9487,-1.9465,-1.948,-1.948,-1.9486,-1.9486,-1.9539,-1.9485,-1.9485,-1.9485,-1.9485,0,-1.9596,-1.9606,-1.9577,-1.9582,-1.9592,-1.9569,-1.9579,-1.9569,-1.9558,-1.956,-1.9537,-1.954,-1.9515,-1.9515,-1.95,-1.9507,-1.9506,-1.9498,-1.9495,-1.9501,-1.9501,-1.9499,-1.9497,-1.9486,-1.9486,-1.9485,-1.9485,0,-1.9648,-1.9629,-1.9636,-1.9616,-1.9612,-1.962,-1.9603,-1.9606,-1.9593,-1.9596,-1.9595,-1.9574,-1.9572,-1.9553,-1.9547,-1.9537,-1.9549,-1.9541,-1.9553,-1.955,-1.9566,-1.9564,-1.9619,-1.9625,-1.9568,-1.9568,-1.9569,0,-1.9676,-1.9683,-1.9664,-1.9663,-1.9656,-1.9656,-1.9653,-1.9631,-1.9629,-1.9616,-1.9621,-1.9617,-1.9613,-1.9611,-1.9595,-1.959,-1.9581,-1.9601,-1.9581,-1.9586,-1.9581,-1.9581,-1.9581,-1.9605,-1.9606,-1.9607,-1.9607,0,-1.9728,-1.9718,-1.9715,-1.9709,-1.9706,-1.97,-1.9692,-1.9693,-1.9668,-1.9667,-1.9664,-1.9661,-1.9654,-1.965,-1.9642,-1.9634,-1.9616,-1.9613,-1.9616,-1.9623,-1.9629,-1.9625,-1.9565,-1.9613,-1.9612,-1.9612,-1.9611,-1.9611,-1.9769,-1.9773,-1.976,-1.9757,-1.9749,-1.9742,-1.9743,-1.973,-1.9727,-1.972,-1.9706,-1.9705,-1.9693,-1.968,-1.9673,-1.9672,-1.9662,-1.9666,-1.9667,-1.9669,-1.9672,-1.9629,-1.967,-1.967,-1.967,-1.967,-1.967,0,-1.982,-1.9809,-1.9807,-1.9796,-1.9794,-1.9777,-1.9767,-1.9766,-1.9765,-1.9755,-1.9751,-1.9747,-1.9743,-1.9726,-1.972,-1.9722,-1.9714,-1.9721,-1.9721,-1.9719,-1.9681,-1.9679,-1.9728,-1.9728,-1.9728,-1.9728,-1.9728,-1.9728,-1.9846,-1.9851,-1.984,-1.9841,-1.983,-1.9829,-1.9825,-1.9818,-1.981,-1.9806,-1.9802,-1.9791,-1.9778,-1.9771,-1.9766,-1.9761,-1.9759,-1.9769,-1.9762,-1.9727,-1.9722,-1.9716,-1.9714,-1.9769,-1.9769,-1.9799,-1.98,-1.98]}]]